User: anonymous   Login
Location: Unspecified
(0.0000°N, 0.0000°E)
Time: 13:01:41
(UTC+00:00)
Language:

Alouette 1 - Orbit

View from above orbital plane
View from above orbital plane
View from above satellite
View from above satellite

Ground track
Ground track

The orbit data is extracted from the following two-line orbital elements,

1 00424U 62049A   16179.23097836  .00000049  00000-0  46247-4 0  9993
2 00424  80.4677 258.0742 0021993 269.5904 148.9456 13.69057896682907
Epoch (UTC): 27 June 2016 05:32:36
Eccentricity: 0.0021993
inclination: 80.4677°
perigee height: 987 km
apogee height: 1019 km
right ascension of ascending node: 258.0742°
argument of perigee: 269.5904°
revolutions per day: 13.69057896
mean anomaly at epoch: 148.9456°
orbit number at epoch: 68290

The dashed part of the orbit path shows where the satellite is in the earth's shadow,  

DLR